SL-12 R/B(2), 37140

Orbit data source: Space-Track

SL-12 R/B(2), 37140 is space debris in MEO originally from a launch on Thu, 02 Sep 2010 UTC launched from the Tyuratam Missile And Space Complex (TTMTR). Debris objects in space refer to the collection of defunct objects orbiting the Earth. Examples of debris include non-operational satellites, rocket bodies, and fragments generated from explosions, collisions, or faulty payload assembly.

Loading next visibility...
Identifier
37140, 2010-041D
Orbit
MEO
Country
Flag of CISCIS
Related business
Manufacturer
RKKE
Mission
Spacecraft
Bus & Motor
BLOK DM2, 11D58M
Mass
2,440 kg wet, 2,440 kg dry
Launch date (UTC)
2010-09-02 (15 years ago)
Launch vehicle
Unknown
Launch site
Tyuratam Missile And Space Complex (TTMTR)
Object type
Payload
Rocket body
Debris
Shape & HBR
Cyl, 3.5 m
Radar Cross Section
26.008 m², Large (>1 m²)

Expand to show TLE details & history
Last TLE update: 1 week ago

TLE from 1 week ago
0 SL-12 R/B(2)
1 37140U 10041D   25280.24003241  .00000028  00000-0  00000-0 0  9994
2 37140  63.9114 198.1787 0040439 193.1857 168.7830  2.13453976117659
Epoch: 2025-10-07T05:45Z
TLE epoch observation values (Epoch: 2025-10-07T05:45:38.800Z)
Latitude
1.8259°
Longitude
96.52209°
Altitude
19,203.249 km
Speed
3.94 km/s
True Right ascension
13h 16m 15s
True Declination
1° 49' 22"
Sunlit
Object was in daylight at epoch
Visualization orbit readout
Latitude
Unknown
Longitude
Unknown
Altitude
Unknown
Speed
Unknown
Apparent Right ascension
Unknown
Apparent Declination
Unknown
Sunlit
N/A
Visualization observer readout
Local Sidereal Time
10:06:55
Azimuth
Unknown
Elevation
Unknown
Doppler factor
Unknown
Orbital elements
Apogee altitude
19,204.529 km
Perigee altitude
18,998.454 km
Semi-major axis
25,479.628 km
Eccentricity
0.00404
Inclination
63.9114°
RAAN
198.1787°
Arg. of periapsis
193.1857°
True anomaly
168.8727°
Mean anomaly
168.783°
Eccentric anomaly
168.82789°
Mean motion
0.53365 °/min
Orbital period
674.6 mins
BSTAR
0
Loading maneuver chart data...
Computing Atmospheric mass density...
Loading historical data...
Loading historical data...
Loading historical data...
Loading historical data...
Loading historical data...
Loading historical data...
Loading historical data...

Documentation

Showing up to 5 results
|